TimeMST,TemperatureF,Dew PointF,Humidity,Sea Level PressureIn,VisibilityMPH,Wind Direction,Wind SpeedMPH,Gust SpeedMPH,PrecipitationIn,Events,Conditions,WindDirDegrees,DateUTC
12:53 AM,39.0,33.1,79,30.06,10.0,Variable,4.6,-,N/A,,Overcast,0,2013-01-26 07:53:00
1:53 AM,39.9,33.1,77,30.04,10.0,SSE,11.5,-,0.00,,Overcast,160,2013-01-26 08:53:00
2:53 AM,39.9,34.0,79,30.04,10.0,South,11.5,-,0.00,,Overcast,190,2013-01-26 09:53:00
3:53 AM,39.0,34.0,82,30.01,10.0,South,9.2,-,N/A,,Overcast,180,2013-01-26 10:53:00
4:53 AM,39.0,34.0,82,30.00,10.0,Calm,Calm,-,N/A,,Overcast,0,2013-01-26 11:53:00
5:53 AM,37.9,34.0,86,30.00,10.0,Variable,3.5,-,0.00,Rain,Light Rain,0,2013-01-26 12:53:00
6:53 AM,39.0,34.0,82,30.00,10.0,SSW,6.9,-,0.00,,Overcast,210,2013-01-26 13:53:00
7:53 AM,39.9,34.0,79,29.99,10.0,South,4.6,-,N/A,,Overcast,170,2013-01-26 14:53:00
8:53 AM,37.9,34.0,86,29.99,10.0,SW,3.5,-,0.00,Rain,Light Rain,230,2013-01-26 15:53:00
9:53 AM,39.9,35.1,83,29.98,10.0,Calm,Calm,-,0.01,,Overcast,0,2013-01-26 16:53:00
10:53 AM,42.1,36.0,79,29.96,10.0,Calm,Calm,-,N/A,,Overcast,0,2013-01-26 17:53:00
11:53 AM,46.0,36.0,68,29.92,10.0,Variable,3.5,-,N/A,,Mostly Cloudy,0,2013-01-26 18:53:00
12:53 PM,46.0,36.0,68,29.87,10.0,SSE,3.5,-,N/A,,Mostly Cloudy,150,2013-01-26 19:53:00
1:53 PM,45.0,36.0,71,29.84,10.0,Calm,Calm,-,N/A,,Mostly Cloudy,0,2013-01-26 20:53:00
2:53 PM,44.1,36.0,73,29.83,10.0,East,3.5,-,N/A,,Mostly Cloudy,90,2013-01-26 21:53:00
3:53 PM,42.1,36.0,79,29.82,10.0,Calm,Calm,-,N/A,,Mostly Cloudy,0,2013-01-26 22:53:00
4:53 PM,39.0,35.1,86,29.83,10.0,NNE,4.6,-,0.00,,Mostly Cloudy,20,2013-01-26 23:53:00
5:53 PM,37.0,34.0,89,29.83,10.0,ENE,4.6,-,0.00,Rain,Light Rain,70,2013-01-27 00:53:00
6:53 PM,36.0,34.0,93,29.83,9.0,Calm,Calm,-,0.00,,Overcast,0,2013-01-27 01:53:00
7:53 PM,36.0,34.0,93,29.82,10.0,Calm,Calm,-,N/A,,Overcast,0,2013-01-27 02:53:00
8:53 PM,37.9,34.0,86,29.82,10.0,SSW,9.2,18.4,0.00,,Overcast,210,2013-01-27 03:53:00
9:53 PM,37.0,34.0,89,29.81,10.0,SSW,8.1,-,0.01,,Overcast,200,2013-01-27 04:53:00
10:53 PM,39.0,34.0,82,29.79,10.0,Variable,4.6,-,N/A,,Overcast,0,2013-01-27 05:53:00
11:53 PM,37.0,33.1,86,29.81,10.0,SW,17.3,25.3,0.00,Rain,Light Rain,230,2013-01-27 06:53:00